| time (UTC) | temp F | wind direction | speed knots | gust knots | rain 1hr in | rain 24hr in | rain mn in | humidity % | barometer mb |
| 20260507144548 | 69 | 248 | 0.0 | 1.7 | 0.00 | 0.00 | 0.00 | 21 | 1015.8 |
| 20260507143046 | 66 | 215 | 0.0 | 1.7 | 0.00 | 0.00 | 0.00 | 25 | 1015.8 |
| 20260507141557 | 64 | 0 | 0.0 | 0.9 | 0.00 | 0.00 | 0.00 | 27 | 1015.8 |
| 20260507140042 | 62 | 0 | 0.0 | 0.0 | 0.00 | 0.00 | 0.00 | 28 | 1015.6 |
| 20260507134551 | 61 | 0 | 0.0 | 0.9 | 0.00 | 0.00 | 0.00 | 29 | 1015.4 |
| 20260507133048 | 61 | 19 | 0.0 | 0.9 | 0.00 | 0.00 | 0.00 | 29 | 1015.5 |
| 20260507131545 | 61 | 0 | 0.0 | 0.9 | 0.00 | 0.00 | 0.00 | 26 | 1015.2 |
| 20260507130047 | 61 | 0 | 0.0 | 0.9 | 0.00 | 0.00 | 0.00 | 24 | 1015.2 |
| 20260507124543 | 62 | 0 | 0.0 | 1.7 | 0.00 | 0.00 | 0.00 | 24 | 1015.2 |
| 20260507123049 | 62 | 352 | 0.0 | 1.7 | 0.00 | 0.00 | 0.00 | 22 | 1015.0 |
| 20260507121544 | 62 | 0 | 0.0 | 1.7 | 0.00 | 0.00 | 0.00 | 23 | 1015.0 |
| 20260507120056 | 62 | 352 | 0.0 | 1.7 | 0.00 | 0.00 | 0.00 | 22 | 1015.0 |
| 20260507114546 | 61 | 352 | 0.0 | 1.7 | 0.00 | 0.00 | 0.00 | 23 | 1015.1 |
| 20260507113049 | 61 | 352 | 0.0 | 1.7 | 0.00 | 0.00 | 0.00 | 23 | 1015.3 |
| 20260507111546 | 61 | 347 | 0.0 | 1.7 | 0.00 | 0.00 | 0.00 | 24 | 1015.3 |
| 20260507110044 | 62 | 335 | 0.0 | 0.9 | 0.00 | 0.00 | 0.00 | 24 | 1015.4 |
| 20260507104550 | 62 | 0 | 0.0 | 0.9 | 0.00 | 0.00 | 0.00 | 24 | 1015.5 |
| 20260507103045 | 63 | 0 | 0.0 | 0.9 | 0.00 | 0.00 | 0.00 | 24 | 1015.5 |
| 20260507101548 | 62 | 0 | 0.0 | 1.7 | 0.00 | 0.00 | 0.00 | 24 | 1015.6 |
| 20260507100047 | 62 | 0 | 0.0 | 0.9 | 0.00 | 0.00 | 0.00 | 24 | 1015.6 |
| 20260507094550 | 62 | 0 | 0.0 | 0.9 | 0.00 | 0.00 | 0.00 | 25 | 1015.6 |
| 20260507093042 | 61 | 332 | 0.0 | 0.9 | 0.00 | 0.00 | 0.00 | 25 | 1015.6 |
| 20260507091550 | 61 | 0 | 0.0 | 0.9 | 0.00 | 0.00 | 0.00 | 26 | 1015.7 |
| 20260507090047 | 62 | 0 | 0.0 | 0.0 | 0.00 | 0.00 | 0.00 | 26 | 1015.9 |
| 20260507084545 | 62 | 0 | 0.0 | 0.0 | 0.00 | 0.00 | 0.00 | 26 | 1015.9 |
| 20260507083045 | 63 | 0 | 0.0 | 0.0 | 0.00 | 0.00 | 0.00 | 25 | 1015.9 |
| 20260507081547 | 63 | 0 | 0.0 | 0.0 | 0.00 | 0.00 | 0.00 | 25 | 1016.0 |
| 20260507080041 | 63 | 0 | 0.0 | 0.9 | 0.00 | 0.00 | 0.00 | 24 | 1016.0 |
| 20260507074540 | 63 | 0 | 0.0 | 1.7 | 0.00 | 0.00 | 0.00 | 24 | 1016.0 |
| 20260507073043 | 63 | 0 | 0.0 | 0.9 | 0.00 | 0.00 | 0.00 | 23 | 1016.2 |
| 20260507071547 | 64 | 0 | 0.0 | 0.0 | 0.00 | 0.00 | 0.00 | 22 | 1016.1 |
| 20260507070048 | 65 | 0 | 0.0 | 0.9 | 0.00 | 0.00 | 0.00 | 21 | 1016.1 |
| 20260507064604 | 66 | 0 | 0.0 | 0.9 | 0.00 | 0.00 | 0.00 | 20 | 1016.1 |
| 20260507063052 | 67 | 0 | 0.0 | 0.9 | 0.00 | 0.00 | 0.00 | 19 | 1016.1 |
| 20260507061545 | 68 | 0 | 0.0 | 0.9 | 0.00 | 0.00 | 0.00 | 20 | 1016.1 |
| 20260507060045 | 69 | 0 | 0.0 | 1.7 | 0.00 | 0.00 | 0.00 | 19 | 1016.0 |
| 20260507054540 | 70 | 0 | 0.0 | 0.9 | 0.00 | 0.00 | 0.00 | 19 | 1016.0 |
| 20260507053050 | 71 | 0 | 0.0 | 0.0 | 0.00 | 0.00 | 0.00 | 18 | 1016.1 |
| 20260507051546 | 72 | 0 | 0.0 | 0.0 | 0.00 | 0.00 | 0.00 | 16 | 1016.0 |
| 20260507050047 | 73 | 0 | 0.0 | 0.0 | 0.00 | 0.00 | 0.00 | 15 | 1015.9 |
| 20260507044546 | 73 | 0 | 0.0 | 0.0 | 0.00 | 0.00 | 0.00 | 15 | 1016.0 |
| 20260507043041 | 74 | 0 | 0.0 | 0.9 | 0.00 | 0.00 | 0.00 | 14 | 1015.7 |
| 20260507041547 | 75 | 0 | 0.0 | 0.9 | 0.00 | 0.00 | 0.00 | 13 | 1015.6 |
| 20260507040045 | 76 | 0 | 0.0 | 0.0 | 0.00 | 0.00 | 0.00 | 12 | 1015.4 |
| 20260507034557 | 77 | 0 | 0.0 | 2.6 | 0.00 | 0.00 | 0.00 | 12 | 1015.2 |
| 20260507033104 | 77 | 221 | 0.9 | 2.6 | 0.00 | 0.00 | 0.00 | 11 | 1015.0 |
| 20260507031543 | 78 | 243 | 0.9 | 3.5 | 0.00 | 0.00 | 0.00 | 11 | 1014.9 |
| 20260507030045 | 78 | 209 | 1.7 | 4.3 | 0.00 | 0.00 | 0.00 | 11 | 1014.5 |
| 20260507024556 | 79 | 195 | 0.9 | 3.5 | 0.00 | 0.00 | 0.00 | 11 | 1014.5 |
| 20260507023051 | 79 | 204 | 0.9 | 3.5 | 0.00 | 0.00 | 0.00 | 11 | 1014.1 |
| 20260507021601 | 80 | 239 | 0.9 | 3.5 | 0.00 | 0.00 | 0.00 | 10 | 1014.1 |
| 20260507020055 | 80 | 200 | 0.9 | 3.5 | 0.00 | 0.00 | 0.00 | 10 | 1014.0 |
| 20260507014546 | 81 | 221 | 0.9 | 5.2 | 0.00 | 0.00 | 0.00 | 9 | 1013.9 |
| 20260507013111 | 82 | 236 | 1.7 | 6.1 | 0.00 | 0.00 | 0.00 | 9 | 1013.8 |
| 20260507011544 | 81 | 186 | 0.0 | 4.3 | 0.00 | 0.00 | 0.00 | 9 | 1013.8 |
| 20260507010045 | 82 | 214 | 0.0 | 3.5 | 0.00 | 0.00 | 0.00 | 9 | 1013.8 |
| 20260507004551 | 83 | 232 | 1.7 | 5.2 | 0.00 | 0.00 | 0.00 | 9 | 1013.7 |
| 20260507003047 | 83 | 87 | 0.9 | 4.3 | 0.00 | 0.00 | 0.00 | 9 | 1013.7 |
| 20260507001605 | 83 | 188 | 2.6 | 7.8 | 0.00 | 0.00 | 0.00 | 8 | 1013.8 |
| 20260507000044 | 83 | 0 | 1.7 | 4.3 | 0.00 | 0.00 | 0.00 | 9 | 1013.8 |
| 20260506234601 | 84 | 175 | 1.7 | 6.1 | 0.00 | 0.00 | 0.00 | 8 | 1013.7 |
| 20260506233055 | 83 | 189 | 1.7 | 6.1 | 0.00 | 0.00 | 0.00 | 8 | 1013.9 |
| 20260506231543 | 84 | 257 | 0.9 | 3.5 | 0.00 | 0.00 | 0.00 | 8 | 1014.0 |
| 20260506230050 | 84 | 296 | 1.7 | 6.1 | 0.00 | 0.00 | 0.00 | 8 | 1014.1 |
| 20260506224605 | 83 | 250 | 1.7 | 7.0 | 0.00 | 0.00 | 0.00 | 8 | 1014.4 |
| 20260506223043 | 83 | 171 | 0.9 | 6.1 | 0.00 | 0.00 | 0.00 | 9 | 1014.5 |
| 20260506221553 | 83 | 255 | 1.7 | 6.1 | 0.00 | 0.00 | 0.00 | 9 | 1014.8 |
| 20260506220051 | 84 | 229 | 0.9 | 6.1 | 0.00 | 0.00 | 0.00 | 7 | 1014.9 |
| 20260506214551 | 82 | 240 | 1.7 | 6.1 | 0.00 | 0.00 | 0.00 | 8 | 1015.1 |
| 20260506213050 | 82 | 67 | 0.9 | 3.5 | 0.00 | 0.00 | 0.00 | 8 | 1015.4 |
| 20260506211553 | 82 | 167 | 3.5 | 6.1 | 0.00 | 0.00 | 0.00 | 9 | 1015.5 |
| 20260506210044 | 82 | 244 | 2.6 | 7.8 | 0.00 | 0.00 | 0.00 | 9 | 1015.8 |
| 20260506204551 | 81 | 179 | 0.9 | 7.8 | 0.00 | 0.00 | 0.00 | 9 | 1016.0 |
| 20260506203043 | 81 | 232 | 0.9 | 4.3 | 0.00 | 0.00 | 0.00 | 10 | 1016.2 |
| 20260506201543 | 80 | 265 | 2.6 | 6.1 | 0.00 | 0.00 | 0.00 | 10 | 1016.3 |
| 20260506200047 | 80 | 246 | 0.9 | 7.0 | 0.00 | 0.00 | 0.00 | 10 | 1016.6 |
| 20260506194551 | 79 | 217 | 3.5 | 7.0 | 0.00 | 0.00 | 0.00 | 10 | 1016.8 |
| 20260506193050 | 80 | 339 | 1.7 | 7.0 | 0.00 | 0.00 | 0.00 | 10 | 1016.9 |
| 20260506191544 | 80 | 82 | 0.9 | 4.3 | 0.00 | 0.00 | 0.00 | 10 | 1016.9 |
| 20260506190044 | 77 | 218 | 0.9 | 6.1 | 0.00 | 0.00 | 0.00 | 12 | 1017.0 |
| 20260506184552 | 78 | 218 | 2.6 | 8.7 | 0.00 | 0.00 | 0.00 | 12 | 1017.2 |
| 20260506183049 | 79 | 261 | 1.7 | 6.1 | 0.00 | 0.00 | 0.00 | 11 | 1017.4 |
| 20260506181559 | 78 | 44 | 0.0 | 5.2 | 0.00 | 0.00 | 0.00 | 14 | 1017.5 |
| 20260506180045 | 77 | 238 | 0.9 | 4.3 | 0.00 | 0.00 | 0.00 | 14 | 1017.6 |
| 20260506174542 | 76 | 249 | 1.7 | 7.0 | 0.00 | 0.00 | 0.00 | 15 | 1017.7 |
| 20260506173059 | 76 | 240 | 0.9 | 6.1 | 0.00 | 0.00 | 0.00 | 16 | 1017.7 |
| 20260506171555 | 76 | 0 | 0.9 | 2.6 | 0.00 | 0.00 | 0.00 | 16 | 1017.7 |
| 20260506170058 | 74 | 199 | 0.9 | 4.3 | 0.00 | 0.00 | 0.00 | 19 | 1017.6 |
| 20260506164552 | 73 | 244 | 0.0 | 3.5 | 0.00 | 0.00 | 0.00 | 20 | 1017.6 |
| 20260506163052 | 72 | 232 | 0.9 | 3.5 | 0.00 | 0.00 | 0.00 | 19 | 1017.6 |
| 20260506161543 | 71 | 0 | 0.9 | 3.5 | 0.00 | 0.00 | 0.00 | 22 | 1017.5 |
| 20260506160058 | 70 | 281 | 0.9 | 3.5 | 0.00 | 0.00 | 0.00 | 22 | 1017.5 |
| 20260506154548 | 69 | 172 | 0.0 | 2.6 | 0.00 | 0.00 | 0.00 | 25 | 1017.5 |
| 20260506153046 | 67 | 164 | 0.0 | 2.6 | 0.00 | 0.00 | 0.00 | 27 | 1017.6 |
| 20260506151547 | 65 | 234 | 0.9 | 2.6 | 0.00 | 0.00 | 0.00 | 28 | 1017.7 |
| 20260506150049 | 62 | 231 | 0.9 | 2.6 | 0.00 | 0.00 | 0.00 | 30 | 1017.8 |